www.pogodaiklimat.ru

Погода и климат >> Архив погоды >> Иран >> Bandar Lengeh


ПОГОДА в Bandar Lengeh

  • Прогноз погоды в Bandar Lengeh
  • Монитор погоды в Bandar Lengeh
  • Климат города

АРХИВ ПОГОДЫ в Bandar Lengeh

Время (UTC), дата Ветер
(напр.,м/с)
 
Видим.   Явления Облачность Т
(С)
Тd
(С)
f
(%)
Тe
(С)
Тes
(С)
Комфортность P
(гПа)
Po
(гПа)
Тmin
(С)
Tmax
(С)
R
(мм)
R24
(мм)
S
(см)
21 10.10 СЗ 3 3000 м дымка ясно +28.3 +28.2 99 +47 +47 опасность
перегрева
1005.5 1003.3
00 11.10 СВ 2 3000 м дымка ясно +27.5 +26.5 94 +42 +42 опасность
перегрева
1005.5 1003.3
03 11.10 СВ 2 3000 м дымка 1/1 600 м
[St]
+27.8 +27.8 100 +45 +46 опасность
перегрева
1007.0 1004.8 +26.2
06 11.10 ЮВ 4 4000 м мгла 4/4 600 м
[St]
+32.3 +27.7 77 +52 +56 опасность
перегрева
1008.2 1006.1
09 11.10 Ю 4 3500 м мгла ясно +34.4 +27.5 67 +53 +63 опасность
перегрева
1007.2 1005.0
12 11.10 Ю 3 3500 м мгла ясно +33.1 +28.2 76 +55 +58 опасность
перегрева
1006.0 1003.8
15 11.10 З 3 3500 м дымка ясно +31.3 +27.6 81 +51 +51 опасность
перегрева
1006.8 1004.6 +35.1
18 11.10 СЗ 2 3000 м дымка ясно +29.3 +29.0 98 +51 +51 опасность
перегрева
1007.2 1005.0
21 11.10 З 3 3000 м дымка ясно +27.1 +26.8 98 +42 +42 опасность
перегрева
1006.2 1004.0
00 12.10 В 3 3000 м мгла ясно +30.4 +20.7 56 +37 +37 очень
душно
1006.1 1003.9
03 12.10 СВ 3 4000 м дымка ясно +27.3 +25.3 89 +40 +40 очень
душно
1007.7 1005.5 +27.0
06 12.10 штиль 0 5000 м мгла 4/4 600 м
[St]
+33.4 +27.4 71 +53 +60 опасность
перегрева
1009.0 1006.8
09 12.10 ЮЗ 4 6000 м мгла 4/4 900 м
[Sc]
+34.6 +26.4 63 +52 +57 опасность
перегрева
1008.0 1005.9
12 12.10 ЮЗ 5 5000 м мгла 1/1 900 м
[Sc]
+34.6 +26.0 61 +50 +52 опасность
перегрева
1006.8 1004.6
15 12.10 З 3 6000 м мгла ясно +31.6 +26.6 75 +49 +49 опасность
перегрева
1006.2 1004.1 +35.4
18 12.10 штиль 0 7000 м дымка ясно +30.0 +27.3 85 +48 +48 опасность
перегрева
1007.2 1005.1
21 12.10 штиль 0 7000 м дымка ясно +27.6 +25.6 89 +41 +41 опасность
перегрева
1006.8 1004.7
00 13.10 штиль 0 7000 м мгла ясно +25.8 +19.7 69 +31 +31 очень
душно
1005.2 1003.1
03 13.10 штиль 0 5000 м мгла ясно +25.0 +18.8 68 +30 +30 душно 1005.8 1003.6 +24.4
06 13.10 штиль 0 6000 м мгла ясно +32.8 +23.0 56 +43 +55 опасность
перегрева
1007.2 1005.0
09 13.10 Ю 3 8000 м мгла ясно +34.2 +25.9 62 +50 +61 опасность
перегрева
1006.6 1004.4
12 13.10 ЮЗ 4 7000 м мгла ясно +34.4 +25.8 61 +50 +52 опасность
перегрева
1005.7 1003.6
15 13.10 ЮЗ 4 8000 м мгла ясно +32.2 +24.6 64 +45 +45 опасность
перегрева
1004.9 1002.8 +35.0
18 13.10 штиль 0 10 км ясно +28.4 +21.9 68 +37 +37 очень
душно
1006.2 1004.1
21 13.10 штиль 0 10 км ясно +27.6 +21.4 69 +35 +35 очень
душно
1005.9 1003.6
00 14.10 штиль 0 10 км ясно +24.0 +21.3 85 +30 +30 очень
душно
1005.7 1003.6
03 14.10 штиль 0 8000 м дымка ясно +25.6 +24.2 92 +35 +36 очень
душно
1007.5 1005.4 +24.0
06 14.10 Ю 2 6000 м мгла ясно +32.3 +24.4 63 +45 +54 опасность
перегрева
1009.2 1007.0
09 14.10 ЮЗ 4 6000 м мгла ясно +33.6 +24.4 59 +46 +56 опасность
перегрева
1007.4 1005.2
12 14.10 ЮЗ 4 8000 м мгла ясно +33.9 +22.8 52 +44 +46 опасность
перегрева
1005.5 1003.4
15 14.10 ЮЗ 2 10 км ясно +30.6 +23.6 66 +41 +41 опасность
перегрева
1005.5 1003.3 +34.3
18 14.10 СЗ 2 10 км ясно +27.6 +20.2 64 +34 +34 очень
душно
1006.5 1004.4
21 14.10 С 2 10 км ясно +26.8 +19.6 65 +33 +33 очень
душно
1006.3 1004.4
00 15.10 С 2 10 км ясно +24.6 +18.5 69 +29 +29 душно 1006.4 1004.3
03 15.10 штиль 0 10 км ясно +23.4 +17.0 67 +29 +29 душно 1008.0 1005.8 +23.4
06 15.10 Ю 2 8000 м мгла ясно +31.9 +23.9 63 +44 +53 опасность
перегрева
1009.7 1007.5
09 15.10 Ю 4 8000 м мгла ясно +33.5 +24.2 58 +45 +55 опасность
перегрева
1008.6 1006.4
12 15.10 ЮЗ 4 8000 м мгла ясно +32.8 +23.0 56 +43 +45 опасность
перегрева
1006.8 1004.7
15 15.10 З 3 8000 м мгла ясно +30.4 +23.7 67 +41 +41 опасность
перегрева
1007.4 1005.2 +34.1
18 15.10 З 2 8000 м мгла ясно +28.7 +21.4 65 +37 +37 очень
душно
1008.3 1006.2
21 15.10 С 2 8000 м мгла ясно +26.9 +22.2 75 +35 +35 очень
душно
1007.6 1005.5
00 16.10 штиль 0 6000 м дымка ясно +24.8 +21.8 83 +32 +32 очень
душно
1007.6 1005.5
03 16.10 С 2 5000 м дымка ясно +23.6 +22.1 91 +30 +31 очень
душно
1009.0 1006.8 +23.3
06 16.10 ЮЗ 3 5000 м мгла ясно +32.0 +23.1 59 +42 +50 опасность
перегрева
1010.1 1007.9
09 16.10 ЮЗ 4 4000 м мгла ясно +32.7 +23.9 60 +44 +53 опасность
перегрева
1008.5 1006.3
12 16.10 ЮЗ 5 4000 м мгла ясно +33.1 +24.0 59 +45 +47 опасность
перегрева
1011.8 1009.6
15 16.10 З 4 4000 м мгла ясно +30.1 +22.2 63 +39 +39 очень
душно
1007.2 1005.0 +33.5
18 16.10 СЗ 2 4000 м мгла ясно +27.9 +21.7 69 +36 +36 очень
душно
1008.0 1005.8
21 16.10 З 2 5000 м мгла ясно +27.0 +22.9 78 +36 +36 очень
душно
1007.3 1005.1
00 17.10 С 3 5000 м дымка ясно +25.3 +22.5 84 +33 +33 очень
душно
1007.2 1005.0
03 17.10 С 3 4000 м дымка ясно +25.1 +22.0 83 +32 +33 очень
душно
1008.3 1006.1 +23.3
06 17.10 ЮВ 3 5000 м мгла ясно +31.4 +25.1 69 +45 +52 опасность
перегрева
1009.9 1007.7
09 17.10 Ю 4 6000 м мгла ясно +33.7 +24.6 59 +47 +56 опасность
перегрева
1008.4 1006.2
12 17.10 ЮЗ 5 4000 м мгла ясно +32.6 +24.4 62 +45 +47 опасность
перегрева
1006.8 1004.6
15 17.10 З 3 4000 м мгла ясно +30.5 +25.0 73 +44 +44 опасность
перегрева
1007.0 1004.8 +34.0

 

Местоположение метеостанции Bandar Lengeh (Иран): широта 26.58 долгота 54.83 высота над уровнем моря 14 м.

В архиве по умолчанию представлена погода в Bandar Lengeh за последнюю неделю. Архивные данные за месяц целиком и за предыдущие месяцы, начиная с января 2011 года, Вы можете получить, выбрав интересующий диапазон дат из раскрывающегося списка и нажав кнопку "Ввод!".

Внимание! Время в таблицах - всемирное. Для получения местного времени необходимо прибавить поправку, которая в Bandar Lengeh равна 3.5 ч.

Смотрите также архив погоды в соседних городах и на ближайших метеорологических станциях:

Погода в Sirri Island (Иран) (80 км)
Погода в Abu Musa Island (Иран) (83 км)
Погода в Kish Island (Иран) (85 км)
Погода в Khasab (Оман) (146 км)
Погода в Khasab Airport (Оман) (147 км)
Погода в Ras Al Khaimah Int Airport (ОАЭ) (153 км)
Погода в Sharjah (ОАЭ) (155 км)
Погода в Dubai (ОАЭ) (156 км)
Погода в Bandarabbass (Иран) (169 км)
Погода в Diba (Оман) (178 км)

Пояснения к столбцам:

Ветер - указаны скорость ветра в м/с - средняя за 10 мин, порывы в срок и между сроками (в фигурных скобках) и направление, откуда дует ветер: С - северный, СВ - северо-восточный, В - восточный, ЮВ - юго-восточный, Ю - южный, ЮЗ - юго-западный, З - западный, СЗ - северо-западный.
Видимость - горизонтальная дальность видимости в метрах или километрах. При видимости от 1 до 10 км при отсутствии осадков обычно наблюдается дымка, при ухудшении видимости до 1 км и менее - туман. В сухую погоду видимость может ухудшаться дымом, пылью или мглою.
Явления - указаны атмосферные явления, наблюдавшиеся в срок или в последний час перед сроком; фигурными скобками обозначены явления, наблюдавшиеся между сроками (за 1-3 часа до срока); квадратными скобками обозначены град или гололедные отложения с указанием их диаметра в мм.
Облачность - указаны через наклонную черту общая и нижняя облачность в баллах и высота нижней границы облаков в метрах; квадратными скобками обозначены формы облаков: Ci - перистые, Cs - перисто-слоистые, Cc - перисто-кучевые, Ac - высококучевые, As - высокослоистые, Sc - слоисто-кучевые, Ns - слоисто-дождевые, Cu - кучевые, Cb - кучево-дождевые. Подробнее классификацию облаков см. в Атласе облаков (PDF).
T - Температура воздуха - температура, измеренная на высоте 2 м над землей.
Td - Температура точки росы - температура, при понижении до которой содержащийся в воздухе водяной пар достигнет насыщения.
f - Относительная влажность воздуха - влажноcть воздуха, измеренная на высоте 2 м над землей.
Te - Эффективная температура - температура, которую ощущает одетый по сезону человек в тени. Характеристика душности погоды. При расчете учитывается влияние влажности воздуха и скорости ветра на теплоощущения человека.
Tes - Эффективная температура на солнце - температура, которую ощущает человек, с поправкой на солнечный нагрев. Характеристика знойности погоды. Зависит от высоты солнца над горизонтом, облачности и скорости ветра. Ночью, в пасмурную погоду, а также при ветре 12 м/с и более поправка равна нулю.
P - Атмосферное давление - приведенное к уровню моря атмосферное давление.
Po - Атмосферное давление - измеренное на уровне метеостанции атмосферное давление.
Tmin - Минимальная температура - минимум температуры воздуха на высоте 2 м над землей.
Tmax - Максимальная температура - максимум температуры воздуха на высоте 2 м над землей.
R - Количество осадков - Количество выпавших осадков за период времени, мм. При наведении курсора мыши на число - период времени, за который выпало указанное количество осадков.
R24 - Количество осадков - Количество выпавших осадков за 24 часа, мм.
S - Снежный покров - Высота снежного покрова, см. При наведении курсора мыши на число - состояние снежного покрова и степень покрытия местности в баллах.